Hourly Data Report for October 02, 2017

All times are specified in Local Standard Time (LST). Add 1 hour to adjust for Daylight Saving Time where and when it is observed.

BATHURST A
NEW BRUNSWICK

47°37'47.000" N
65°44'20.000" W
58.80 m
8100505
71574
ZBF

Download Data

Hourly Data (October 2017)
Hourly Data Report for October 2, 2017
Temp Definition
°C
Dew Point Temp Definition
°C
Rel Hum Definition
%
Wind Dir Definition
10's deg

Wind Spd Definition
km/h
Visibility Definition
km
Stn Press Definition
kPa
Hmdx Definition


Wind Chill Definition


Weather Definition


TIME
00:00 Legend Double Dagger 6.5 5.2 91 29 6 24.1 101.27     LegendNANA
01:00 Legend Double Dagger 10.1 4.7 69 31 6 24.1 101.36     LegendNANA
02:00 Legend Double Dagger 9.5 4.5 71 31 8 24.1 101.44     Clear
03:00 Legend Double Dagger 7.9 3.1 72 35 7 24.1 101.53     LegendNANA
04:00 Legend Double Dagger 6.6 0.3 64 31 10 24.1 101.65     LegendNANA
05:00 Legend Double Dagger 5.0 -0.4 68 30 10 24.1 101.73     Clear
06:00 Legend Double Dagger 3.9 -1.0 70 33 4 24.1 101.81     LegendNANA
07:00 Legend Double Dagger 3.8 -1.2 70 30 5 24.1 101.93     LegendNANA
08:00 Legend Double Dagger 5.4 -1.0 63 34 7 24.1 102.04     Clear
09:00 Legend Double Dagger 7.3 -0.2 59 2 10 24.1 102.14     LegendNANA
10:00 Legend Double Dagger 8.1 -0.5 55 31 13 24.1 102.19     LegendNANA
11:00 Legend Double Dagger 9.4 -0.3 50 30 14 24.1 102.24     Clear
12:00 Legend Double Dagger 10.3 -0.7 46 2 17 24.1 102.28     LegendNANA
13:00 Legend Double Dagger 11.7 -1.9 39 36 15 24.1 102.28     LegendNANA
14:00 Legend Double Dagger 12.5 -1.8 37 2 11 24.1 102.29     Clear
15:00 Legend Double Dagger 12.6 -1.8 37 35 11 24.1 102.33     LegendNANA
16:00 Legend Double Dagger 12.9 -2.9 33 33 11 24.1 102.33     LegendNANA
17:00 Legend Double Dagger 12.4 -3.1 34 34 12 24.1 102.40     Clear
18:00 Legend Double Dagger 10.1 -1.1 46 32 4 24.1 102.51     LegendNANA
19:00 Legend Double Dagger 7.9 -1.0 53 30 7 24.1 102.61     LegendNANA
20:00 Legend Double Dagger 6.6 -0.7 60 31 7 24.1 102.68     Clear
21:00 Legend Double Dagger 5.8 -0.6 64 31 10 24.1 102.74     LegendNANA
22:00 Legend Double Dagger 4.5 -0.7 69 32 3 24.1 102.77     LegendNANA
23:00 Legend Double Dagger 3.4 -0.7 74 30 4 24.1 102.79     Clear

Notes on Data Quality.

Legend

  • E = Estimated
  • M = Missing
  • NA = Not Available
  • ‡ = Partner data that is not subject to review by the National Climate Archives
Date modified: